Regional Weather Roundup
Issued by NWS

Home | Current Version | Previous Version | Graphics & Text | Print | Product List | Glossary On
Versions: 1 2 3 4 5 6 7 8 9 10 11 12 13 14 15 16 17 18 19 20 21 22 23 24 25 26 27 28 29 30 31 32 33 34 35 36 37 38 39 40 41 42 43 44 45 46 47 48 49 50
000
ASUS45 KSLC 011010
RWRUT

UTAH REGIONAL WEATHER ROUNDUP
NATIONAL WEATHER SERVICE SALT LAKE CITY UT
400 AM MDT FRI AUG 01 2014

UTZ001>011-023>025-011100-

NORTHERN UTAH

CITY           SKY/WX    TMP DP  RH WIND       PRES   REMARKS
HILL AFB       PTCLDY    65  51  61 E15       30.16S
LOGAN          CLEAR     55  51  86 CALM      30.16S
OGDEN          PTCLDY    65  51  60 S10       30.13F
PROVO AIRPORT  MOCLDY    64  54  68 CALM      30.17S
SALT LAKE CITY PTCLDY    67  53  61 S5        30.12S
VERNAL         PTCLDY    63  38  39 NW7       30.16S
WENDOVER       CLEAR     64  45  48 CALM      30.15S
HEBER CITY     PTCLDY    55  52  88 CALM      30.23F
WEST JORDAN    CLEAR     64  57  77 CALM      30.16S

$$

UTZ012>022-026-027-011100-

SOUTHERN UTAH

CITY           SKY/WX    TMP DP  RH WIND       PRES   REMARKS
BRYCE CANYON   PTCLDY    49  48  97 NW5       30.35F
CEDAR CITY     PTCLDY    59  51  75 S7        30.21S
MILFORD        CLEAR     57  53  86 W5        30.18S
MOAB/CYNLANDS  CLEAR     65  59  81 SW3       30.12S
PRICE          MOCLDY    59  51  75 NE7       30.23
ST GEORGE      MOSUNNY   79  52  38 E8        30.04S
KANAB            N/A     64  55  72 NW12      30.20F

$$

REGIONAL REPORTS     COLORADO/ARIZONA

CITY           SKY/WX    TMP DP  RH WIND       PRES   REMARKS
CRAIG, CO      MOCLDY    56  49  77 E9        30.24S
GRAND JUNCTION MOCLDY    68  50  52 N7        30.15R
RIFLE          MOCLDY    62  51  67 E3        30.20R
MONTROSE       CLOUDY    68  51  54 SE12      30.23R
CORTEZ         PTCLDY    64  52  64 N3        30.24F
PAGE, AZ       CLOUDY    74  51  44 VRB3      30.12F
GRAND CANYON   CLOUDY    58  53  84 CALM      30.32S
KINGMAN        PTCLDY    80  51  36 SE12      30.03R
FLAGSTAFF      CLOUDY    53  51  93 CALM      30.33S

$$

REGIONAL REPORTS    NEVADA/IDAHO/WYOMING

CITY           SKY/WX    TMP DP  RH WIND       PRES   REMARKS
LAS VEGAS, NV  MOCLDY    90  51  26 NE6       29.88R
ELY            CLEAR     47  42  83 S9        30.29R
ELKO           MOCLDY    56  50  80 CALM      30.22S
POCATELLO, ID  CLEAR     60  51  72 N5        30.17R
BURLEY         MOCLDY    58  50  75 SW3       30.13R
EVANSTON, WY   PTCLDY    58  42  55 N3        30.32S
ROCK SPRINGS   CLEAR     57  36  45 CALM      30.30S

$$



USA.gov is the U.S. government's official web portal to all federal, state and local government web resources and services.